This is the latest recevied weather packets stored in our database for station/object KO4APQ. If no packets are shown the sender has not sent any weather packets the latest 10 day(s).
| Time | Temp. | Humidity | Pressure | Rain* | Wind** | Luminosity | Snow |
|---|---|---|---|---|---|---|---|
| 1777476360 | 21.11° C | 79% | 1013.9 hPa | 0 mm | - | 885 W/m² | - |
| 1777476056 | 20.56° C | 81% | 1014.1 hPa | 0 mm | - | 652 W/m² | - |
| 1777475752 | 20° C | 81% | 1014.1 hPa | 0 mm | - | 440 W/m² | - |
| 1777475449 | 20° C | 80% | 1014.1 hPa | 0 mm | - | 611 W/m² | - |
| 1777475149 | 19.44° C | 84% | 1014.1 hPa | 0 mm | - | 423 W/m² | - |
| 1777474847 | 19.44° C | 85% | 1014 hPa | 0 mm | - | 283 W/m² | - |
| 1777474542 | 19.44° C | 84% | 1014.2 hPa | 0 mm | - | 202 W/m² | - |
| 1777474239 | 19.44° C | 85% | 1014.1 hPa | 0 mm | - | 194 W/m² | - |
| 1777473936 | 19.44° C | 85% | 1014.4 hPa | 0 mm | - | 199 W/m² | - |
| 1777473634 | 19.44° C | 86% | 1014.2 hPa | 0 mm | - | 234 W/m² | - |
| 1777473330 | 18.89° C | 86% | 1014.1 hPa | 0 mm | - | 203 W/m² | - |
| 1777473026 | 18.89° C | 87% | 1014.2 hPa | 0 mm | - | 257 W/m² | - |
| 1777472722 | 18.89° C | 86% | 1014.1 hPa | 0 mm | - | 167 W/m² | - |
| 1777472419 | 18.89° C | 86% | 1014.1 hPa | 0 mm | - | 147 W/m² | - |
| 1777472117 | 18.89° C | 86% | 1014.2 hPa | 0 mm | - | 151 W/m² | - |
| 1777471817 | 18.89° C | 87% | 1014.3 hPa | 0 mm | - | 150 W/m² | - |
| 1777471514 | 18.89° C | 88% | 1014.1 hPa | 0 mm | - | 118 W/m² | - |
| 1777471210 | 18.33° C | 89% | 1014.4 hPa | 0 mm | - | 89 W/m² | - |
| 1777470907 | 18.33° C | 88% | 1014.3 hPa | 0 mm | - | 135 W/m² | - |
| 1777470604 | 18.33° C | 88% | 1014.6 hPa | 0 mm | - | 137 W/m² | - |
| 1777470300 | 18.89° C | 87% | 1014.5 hPa | 0 mm | - | 86 W/m² | - |
| 1777469996 | 18.89° C | 89% | 1014.6 hPa | 0 mm | - | 177 W/m² | - |
| 1777469692 | 18.33° C | 89% | 1014.3 hPa | 0 mm | - | 211 W/m² | - |
| 1777469388 | 18.33° C | 89% | 1014.7 hPa | 0 mm | - | 239 W/m² | - |
| 1777469083 | 18.33° C | 89% | 1014.7 hPa | 0 mm | - | 199 W/m² | - |
* Rain latest hour (hover to see other rain measurements)
** Current wind speed in m/s (hover to see current wind gust speed)